[[{"header":{"parameterUnit":"m.s-1","parameterCategory":1,"la1":30.2991,"la2":30.254,"lo1":-89.0895,"lo2":-89.0444,"dy":0.0017,"dx":0.0017,"nx":28,"ny":28,"refTime":"2025-07-14T03:00:00:Z","depth":0,"parameterNumber":2,"parameterNumberName":"U-component_of_WINDS"},"data":[0,0,0,0,0,0,0,0,0,0,0,0,0,0,0,0,0,0,0,0,0,0,0,0,0,0,0,0,0,0,0,0,0,0,0,0,0,0,0,0,0,0,0,0,0,0,0,0,0,0,0,0,0,0,0,0,0,0,2.2784,2.2785,0,2.2885,2.2886,2.2887,2.284,2.2838,2.2835,2.2833,2.2938,2.2943,2.2948,0,0,0,0,0,0,0,0,0,0,0,0,0,2.2551,2.2555,2.2784,2.2785,2.2786,2.2885,2.2886,2.2888,2.2841,2.2838,2.2835,2.2832,2.2936,2.2943,2.2949,0,0,0,0,0,0,0,0,0,0,0,0,0,2.2652,2.2557,2.2784,2.2775,2.2775,2.2885,2.2886,2.2888,2.2841,2.2838,2.2834,2.283,2.2934,2.2942,2.295,2.3074,0,0,2.2973,2.2977,0,0,0,0,0,0,0,0,2.2646,2.2661,2.2775,2.2776,2.2776,2.2846,2.2843,2.2951,2.2842,2.2816,2.2833,2.2828,2.2911,2.292,2.2948,2.3079,2.3084,2.2974,2.2979,2.2982,2.2984,0,0,0,0,0,0,0,2.2639,2.2656,2.2824,2.2776,2.2777,2.2766,2.2776,2.2863,2.2884,2.2818,2.2815,2.2828,2.291,2.294,2.295,2.3085,2.2974,2.2981,2.2986,2.2989,2.3325,2.3329,0,0,0,0,0,0,2.2632,2.2651,2.2821,2.2827,2.27,2.2773,2.2785,2.2828,2.2883,2.2887,2.2831,2.2825,2.2929,2.2941,2.2953,2.3103,2.2982,2.2989,2.2994,2.332,2.3325,2.333,0,0,0,0,0,0,2.2628,2.2648,2.2817,2.2738,2.2759,2.2781,2.283,2.2832,2.2861,2.2892,2.2896,2.2858,2.2926,2.2942,2.3045,2.3106,2.2993,2.3,2.3315,2.3322,2.3328,2.3404,0,0,0,0,0,0,2.2621,2.2647,2.2694,2.2739,2.2763,2.2906,2.2834,2.2836,2.2875,2.2868,2.2918,2.2923,2.2925,2.3033,2.3052,2.3115,2.3006,2.331,2.3318,2.3326,2.3396,2.3412,2.3426,0,0,0,0,0,2.2613,2.2712,2.2697,2.2718,2.2823,2.291,2.2923,2.2923,2.288,2.2928,2.2948,2.2921,2.3096,2.3044,2.3065,2.3131,2.3306,2.3316,2.3325,2.3389,2.3409,2.3425,0,0,0,0,0,0,2.2674,2.2718,2.2701,2.2818,2.286,2.2901,2.2962,2.2944,2.3,2.2991,2.2988,2.3,2.3106,2.3129,2.307,2.3255,2.3195,2.3209,2.3236,2.3255,2.327,2.3262,2.3012,0,0,0,0,0,2.27,2.2767,2.2802,2.2901,2.2923,2.2939,2.2977,2.2973,2.3017,2.3035,2.3062,2.3107,2.3172,2.3214,2.3276,2.3399,2.3409,2.3454,2.3469,2.3481,2.3494,2.3561,2.3581,2.3362,2.3361,2.3361,0,0,2.2757,2.2789,2.2831,2.2914,2.2947,2.3016,2.2955,2.3031,2.3082,2.3047,2.3145,2.3167,2.3216,2.3329,2.338,2.3351,2.3557,2.3494,2.3503,2.3509,2.3573,2.3594,2.3612,2.3368,2.3367,2.3366,0,0,2.2895,2.2926,2.3012,2.3046,2.3095,2.3105,2.3126,2.317,2.3183,2.3281,2.3256,2.3318,2.3429,2.3466,2.3499,2.365,2.3628,2.367,2.3749,2.3814,2.3831,2.3847,2.3901,2.392,2.3683,2.3683,2.3683,0,2.2959,2.3062,2.3059,2.3137,2.3174,2.3145,2.3232,2.3265,2.3333,2.3359,2.3325,2.3465,2.3496,2.3617,2.3654,2.3682,2.3706,2.3665,2.3829,2.3844,2.3859,2.391,2.3931,2.3688,2.3687,2.3687,2.3686,0,2.3138,2.321,2.3274,2.3339,2.3384,2.3466,2.3476,2.3521,2.3513,2.3527,2.3627,2.3663,2.3732,2.376,2.3753,2.3881,2.3861,2.3828,2.3768,2.3884,2.3933,2.3953,2.3695,2.3693,2.3691,2.369,0,0,2.3318,2.338,2.3404,2.3433,2.3486,2.3542,2.3623,2.3689,2.3728,2.3776,2.3844,2.3939,2.3909,2.3947,2.3943,2.4001,2.4119,2.3961,2.3962,2.3989,2.4262,2.4286,2.4309,2.4104,2.4108,2.4111,2.4258,0,2.346,2.3602,2.3601,2.3732,2.3799,2.3772,2.3842,2.3882,2.3897,2.3956,2.3972,2.404,2.3995,2.4018,2.4073,2.4093,2.4174,2.4082,2.4168,2.4171,2.4157,2.4335,2.4361,2.4498,2.4277,2.428,2.4282,0,2.3645,2.3698,2.3836,2.3879,2.3907,2.397,2.4031,2.4087,2.4132,2.4139,2.4181,2.4169,2.4252,2.4189,2.4303,2.4241,2.4276,2.4291,2.4297,2.4305,2.4234,2.4348,2.4541,2.4562,2.4312,2.431,2.4308,0,2.3763,2.3869,2.3965,2.3991,2.4043,2.4088,2.4112,2.4153,2.4193,2.4246,2.4272,2.4335,2.4369,2.4418,2.4423,2.4376,2.4538,2.4475,2.4546,2.4547,2.4582,2.458,2.4784,2.4604,2.4604,2.4604,2.4603,0,2.3922,2.4008,2.4019,2.4078,2.4173,2.4171,2.4265,2.4285,2.4322,2.4385,2.4365,2.4424,2.4427,2.4489,2.4493,2.4587,2.4603,2.4611,2.4611,2.4613,2.4612,2.4636,2.4627,2.4609,2.4608,2.4607,2.4606,0,2.407,2.4081,2.4184,2.4225,2.4237,2.4305,2.434,2.4397,2.4409,2.4489,2.4507,2.4527,2.4598,2.4608,2.4691,2.4694,2.4808,2.4798,2.4792,2.4791,2.4862,2.4855,2.5089,2.5119,2.492,2.4921,2.4923,0,2.4172,2.4236,2.4284,2.4324,2.435,2.4416,2.4456,2.4457,2.45,2.4556,2.4606,2.4674,2.4729,2.4844,2.4866,2.493,2.4922,2.4999,2.4931,2.4931,2.4923,2.4919,2.4926,2.5012,2.5015,2.5016,2.5018,0,2.435,2.4352,2.441,2.4471,2.452,2.4568,2.4613,2.4647,2.4654,2.4703,2.4775,2.4817,2.4902,2.4971,2.5033,2.5058,2.504,2.5039,2.5059,2.5061,2.5056,2.506,2.4828,2.5034,2.5032,2.5031,2.503,2.5029,2.4478,2.4534,2.4576,2.4642,2.4676,2.4719,2.4774,2.4793,2.4853,2.4921,2.4918,2.4997,2.504,2.5122,2.5152,2.5214,2.5189,2.5218,2.5225,2.5232,2.5239,2.5045,2.5226,2.5225,2.5225,2.5224,2.5224,0,2.4656,2.4681,2.4742,2.4805,2.4857,2.4834,2.4883,2.4928,2.4998,2.5039,2.5093,2.5176,2.5242,2.527,2.5335,2.5379,2.5373,2.5397,2.5393,2.54,2.5258,2.5234,2.5401,2.5401,2.5401,2.5401,2.5401,2.5401,2.4754,2.4848,2.4855,2.4966,2.4991,2.5068,2.5098,2.5137,2.517,2.5263,2.5318,2.5335,2.5371,2.5438,2.5498,2.5504,2.5529,2.5557,2.556,2.5427,2.541,2.5392,2.537,2.5563,2.5563,2.5696,2.5698,2.5699]},{"header":{"parameterUnit":"m.s-1","parameterCategory":1,"la1":30.2991,"la2":30.254,"lo1":-89.0895,"lo2":-89.0444,"dy":0.0017,"dx":0.0017,"nx":28,"ny":28,"refTime":"2025-07-14T03:00:00:Z","depth":0,"parameterNumber":3,"parameterNumberName":"V-component_of_WINDS"},"data":[0,0,0,0,0,0,0,0,0,0,0,0,0,0,0,0,0,0,0,0,0,0,0,0,0,0,0,0,0,0,0,0,0,0,0,0,0,0,0,0,0,0,0,0,0,0,0,0,0,0,0,0,0,0,0,0,0,0,-1.3473,-1.3473,0,-1.3547,-1.3548,-1.3549,-1.3585,-1.3585,-1.3585,-1.3585,-1.3662,-1.3664,-1.3666,0,0,0,0,0,0,0,0,0,0,0,0,0,-1.3361,-1.3363,-1.3472,-1.3473,-1.3474,-1.3547,-1.3548,-1.3549,-1.3585,-1.3585,-1.3585,-1.3585,-1.3661,-1.3663,-1.3666,0,0,0,0,0,0,0,0,0,0,0,0,0,-1.342,-1.3363,-1.3472,-1.3501,-1.3505,-1.3547,-1.3548,-1.355,-1.3585,-1.3585,-1.3585,-1.3585,-1.366,-1.3663,-1.3666,-1.3685,0,0,-1.3675,-1.3677,0,0,0,0,0,0,0,0,-1.3416,-1.3424,-1.3496,-1.3499,-1.3503,-1.3557,-1.3537,-1.3595,-1.3586,-1.3555,-1.3585,-1.3585,-1.3627,-1.3633,-1.3647,-1.3689,-1.3692,-1.3676,-1.3678,-1.3679,-1.368,0,0,0,0,0,0,0,-1.3412,-1.3421,-1.3502,-1.3497,-1.3501,-1.351,-1.3519,-1.3548,-1.359,-1.3557,-1.356,-1.3569,-1.3629,-1.3644,-1.3649,-1.3693,-1.3676,-1.3678,-1.368,-1.3681,-1.3756,-1.3756,0,0,0,0,0,0,-1.3404,-1.3417,-1.35,-1.3504,-1.3459,-1.3512,-1.3522,-1.354,-1.359,-1.3597,-1.3569,-1.357,-1.3638,-1.3645,-1.3651,-1.3678,-1.3679,-1.3682,-1.3683,-1.3756,-1.3756,-1.3756,0,0,0,0,0,0,-1.3401,-1.3411,-1.3497,-1.3462,-1.3473,-1.3514,-1.3534,-1.3541,-1.3556,-1.3598,-1.3606,-1.3576,-1.3639,-1.3647,-1.3677,-1.3681,-1.3683,-1.3686,-1.3756,-1.3756,-1.3756,-1.373,0,0,0,0,0,0,-1.3398,-1.3409,-1.3417,-1.3462,-1.3475,-1.3521,-1.3535,-1.3543,-1.3561,-1.3564,-1.3607,-1.3614,-1.3639,-1.3672,-1.368,-1.3685,-1.3688,-1.3755,-1.3756,-1.3756,-1.3731,-1.3729,-1.3728,0,0,0,0,0,-1.3394,-1.3407,-1.3417,-1.3427,-1.3485,-1.3521,-1.3529,-1.3557,-1.3562,-1.357,-1.3597,-1.3613,-1.3679,-1.3675,-1.3684,-1.369,-1.3755,-1.3756,-1.3756,-1.3731,-1.373,-1.3728,0,0,0,0,0,0,-1.3361,-1.3413,-1.3425,-1.3453,-1.3482,-1.3527,-1.3538,-1.3554,-1.3583,-1.3584,-1.3618,-1.3628,-1.3654,-1.3675,-1.3669,-1.3712,-1.3719,-1.3721,-1.3697,-1.3696,-1.3695,-1.3689,-1.3691,0,0,0,0,0,-1.3357,-1.3382,-1.3426,-1.3446,-1.346,-1.3496,-1.3513,-1.3532,-1.3564,-1.3576,-1.3606,-1.3636,-1.3663,-1.3681,-1.3708,-1.3734,-1.3744,-1.3743,-1.3742,-1.374,-1.3742,-1.3758,-1.3758,-1.3757,-1.3757,-1.3757,0,0,-1.3349,-1.3381,-1.3394,-1.344,-1.3465,-1.349,-1.3506,-1.3532,-1.355,-1.358,-1.361,-1.3633,-1.3668,-1.3696,-1.371,-1.3715,-1.3744,-1.3741,-1.374,-1.3742,-1.3758,-1.3758,-1.3758,-1.3757,-1.3757,-1.3757,0,0,-1.3348,-1.3374,-1.3394,-1.3419,-1.3456,-1.3481,-1.3485,-1.3528,-1.3544,-1.3575,-1.3598,-1.3621,-1.3667,-1.3692,-1.3711,-1.3719,-1.3735,-1.3727,-1.3721,-1.3736,-1.3736,-1.3736,-1.3739,-1.374,-1.3729,-1.3729,-1.3729,0,-1.3333,-1.3371,-1.3402,-1.3426,-1.3446,-1.3475,-1.3495,-1.3518,-1.3562,-1.3575,-1.358,-1.364,-1.3666,-1.37,-1.3703,-1.3717,-1.3723,-1.3722,-1.3733,-1.3734,-1.3734,-1.3738,-1.3739,-1.3727,-1.3728,-1.3728,-1.3728,0,-1.3351,-1.3378,-1.3389,-1.3432,-1.3453,-1.3475,-1.351,-1.3527,-1.3545,-1.3569,-1.36,-1.3633,-1.3668,-1.3678,-1.3695,-1.3715,-1.3716,-1.3727,-1.3734,-1.3733,-1.3737,-1.3738,-1.3726,-1.3726,-1.3726,-1.3727,0,0,-1.3331,-1.3391,-1.3395,-1.3415,-1.3459,-1.348,-1.3504,-1.3538,-1.3553,-1.3583,-1.3604,-1.3643,-1.3653,-1.3675,-1.3695,-1.3708,-1.3714,-1.3717,-1.3719,-1.3716,-1.3738,-1.373,-1.3731,-1.3725,-1.3725,-1.3725,-1.3735,0,-1.3335,-1.3379,-1.3408,-1.3441,-1.3465,-1.3493,-1.3514,-1.3544,-1.3567,-1.3591,-1.3617,-1.3644,-1.3655,-1.3668,-1.3682,-1.371,-1.3718,-1.371,-1.3745,-1.3745,-1.3735,-1.3733,-1.3724,-1.3731,-1.3736,-1.3737,-1.3737,0,-1.3346,-1.3376,-1.3411,-1.3453,-1.3465,-1.3483,-1.3517,-1.354,-1.3574,-1.359,-1.3614,-1.3636,-1.3662,-1.3668,-1.3705,-1.3698,-1.3715,-1.373,-1.3731,-1.3736,-1.3741,-1.3737,-1.3734,-1.3735,-1.374,-1.3739,-1.3739,0,-1.3328,-1.3376,-1.3404,-1.342,-1.347,-1.3482,-1.3504,-1.3538,-1.3557,-1.3587,-1.36,-1.3633,-1.3651,-1.3676,-1.3705,-1.3707,-1.374,-1.3748,-1.3754,-1.3753,-1.3759,-1.3758,-1.3759,-1.377,-1.377,-1.377,-1.377,0,-1.3329,-1.335,-1.3397,-1.3413,-1.3437,-1.347,-1.3493,-1.3517,-1.3547,-1.3569,-1.3596,-1.3616,-1.3654,-1.3679,-1.3702,-1.373,-1.3737,-1.3751,-1.3757,-1.3749,-1.3747,-1.376,-1.376,-1.377,-1.377,-1.377,-1.377,0,-1.3312,-1.3345,-1.3377,-1.3421,-1.3433,-1.3449,-1.3487,-1.3505,-1.353,-1.3557,-1.3566,-1.3605,-1.3636,-1.3668,-1.371,-1.3726,-1.3752,-1.376,-1.3741,-1.3744,-1.3748,-1.3747,-1.3757,-1.376,-1.3768,-1.3768,-1.3768,0,-1.3311,-1.3328,-1.3375,-1.3392,-1.3412,-1.3439,-1.3459,-1.3493,-1.3512,-1.3553,-1.3566,-1.3599,-1.3627,-1.3675,-1.3707,-1.3739,-1.3749,-1.375,-1.3754,-1.3745,-1.3749,-1.3747,-1.3749,-1.3748,-1.3748,-1.3748,-1.3748,0,-1.3306,-1.3322,-1.3349,-1.3383,-1.3406,-1.3434,-1.3463,-1.3476,-1.3515,-1.3536,-1.3568,-1.359,-1.3633,-1.3665,-1.3702,-1.3724,-1.3742,-1.3746,-1.375,-1.3741,-1.3729,-1.3736,-1.3737,-1.3746,-1.3746,-1.3746,-1.3746,-1.3746,-1.3297,-1.3314,-1.3349,-1.338,-1.3405,-1.3432,-1.3451,-1.3478,-1.3506,-1.3544,-1.3562,-1.3594,-1.3629,-1.3679,-1.3701,-1.3727,-1.3732,-1.3737,-1.3738,-1.3739,-1.3737,-1.3725,-1.3734,-1.3734,-1.3734,-1.3734,-1.3734,0,-1.3294,-1.3318,-1.3346,-1.3386,-1.341,-1.3426,-1.3459,-1.3478,-1.3506,-1.3537,-1.3564,-1.3602,-1.3634,-1.3668,-1.3703,-1.3717,-1.3726,-1.3724,-1.3724,-1.3729,-1.373,-1.3724,-1.3716,-1.3716,-1.3716,-1.3716,-1.3716,-1.3716,-1.3294,-1.3323,-1.3342,-1.3384,-1.3409,-1.3441,-1.3458,-1.3483,-1.3508,-1.3548,-1.3575,-1.3598,-1.3631,-1.3668,-1.3698,-1.3707,-1.3719,-1.3715,-1.3727,-1.3727,-1.3728,-1.373,-1.3724,-1.3717,-1.3717,-1.3723,-1.3723,-1.3723]}]]